KC7NGC-B Weather Reports


time (UTC)temp
F
wind
direction
speed
knots
gust
knots
rain 1hr
in
rain 24hr
in
rain mn
in
humidity
%
barometer
mb
20260901200619 76 207 6.1 9.6 0.00 0.00 0.00 1 1008.4
20260901195636 74 204 5.2 7.8 0.00 0.00 0.00 1 1008.7
20260901194632 71 228 3.5 5.2 0.00 0.00 0.00 1 1008.7
20260901193629 72 184 5.2 6.1 0.00 0.00 0.00 1 1008.9
20260901192624 72 184 2.6 5.2 0.00 0.00 0.00 1 1009.0
20260901191621 72 175 2.6 4.3 0.00 0.00 0.00 1 1009.1
20260901190636 72 182 1.7 3.5 0.00 0.00 0.00 1 1008.8
20260901185653 71 172 3.5 5.2 0.00 0.00 0.00 1 1008.8
20260901184630 71 182 2.6 3.5 0.00 0.00 0.00 1 1008.7
20260901183645 70 186 2.6 4.3 0.00 0.00 0.00 1 1008.9
20260901182621 70 206 5.2 8.7 0.00 0.00 0.00 1 1009.0
20260901181617 70 172 6.1 8.7 0.00 0.00 0.00 1 1009.2
20260901180634 70 172 3.5 5.2 0.00 0.00 0.00 1 1008.9
20260901175630 70 205 2.6 4.3 0.00 0.00 0.00 1 1009.0
20260901174626 70 185 4.3 5.2 0.00 0.00 0.00 1 1009.2
20260901173622 71 182 1.7 2.6 0.00 0.00 0.00 1 1009.2
20260901172618 70 112 0.9 1.7 0.00 0.00 0.00 1 1009.3
20260901171634 71 161 1.7 2.6 0.00 0.00 0.00 1 1009.3
20260901170630 71 176 0.9 1.7 0.00 0.00 0.00 1 1009.1
20260901165647 70 0.0 0.0 0.00 0.00 0.00 1 1008.8
20260901164703 69 0.0 0.0 0.00 0.00 0.00 1 1008.9
20260901163619 69 0.0 0.0 0.00 0.00 0.00 1 1009.0
20260901162635 69 48 1.7 1.7 0.00 0.00 0.00 1 1008.9
20260901161651 68 0.0 0.0 0.00 0.00 0.00 1 1009.0
20260901160627 68 121 0.0 0.9 0.00 0.00 0.00 1 1009.1
20260901155624 69 0.0 1.7 0.00 0.00 0.00 1 1009.0
20260901154619 68 54 0.9 1.7 0.00 0.00 0.00 1 1008.8
20260901153619 68 69 0.9 1.7 0.00 0.00 0.00 1 1008.8
20260901152633 67 52 0.9 1.7 0.00 0.00 0.00 1 1008.6
20260901151629 67 44 0.9 1.7 0.00 0.00 0.00 1 1008.7
20260901150625 66 0.0 0.0 0.00 0.00 0.00 1 1008.7
20260901145641 65 0.0 0.0 0.00 0.00 0.00 1 1008.6
20260901144618 64 320 1.7 1.7 0.00 0.00 0.00 1 1008.6
20260901143815 64 342 4.3 4.3 0.00 0.00 0.00 1 1008.5
20260901142631 64 262 0.0 1.7 0.00 0.00 0.00 1 1008.5
20260901141627 63 278 0.9 1.7 0.00 0.00 0.00 1 1008.5
20260901140623 63 190 2.6 3.5 0.00 0.00 0.00 1 1008.3
20260901135639 62 155 0.9 2.6 0.00 0.00 0.00 1 1008.2
20260901134636 62 207 2.6 3.5 0.00 0.00 0.00 1 1008.3
20260901133632 62 0.0 2.6 0.00 0.00 0.00 1 1008.0
20260901132628 62 214 0.9 2.6 0.00 0.00 0.00 1 1008.2
20260901131625 63 202 1.7 2.6 0.00 0.00 0.00 1 1008.3
20260901130620 63 200 1.7 3.5 0.00 0.00 0.00 1 1008.3
20260901125620 63 10 1.7 2.6 0.00 0.00 0.00 1 1008.1
20260901124633 63 0.0 0.9 0.00 0.00 0.00 1 1007.9
20260901123629 64 132 0.0 0.9 0.00 0.00 0.00 1 1007.7
20260901122624 64 270 0.9 1.7 0.00 0.00 0.00 1 1008.1
20260901121641 64 0.0 0.0 0.00 0.00 0.00 1 1007.9
20260901120618 64 329 2.6 3.5 0.00 0.00 0.00 1 1007.9
20260901115634 64 0.0 0.9 0.00 0.00 0.00 1 1008.0
20260901114652 63 285 2.6 3.5 0.00 0.00 0.00 1 1007.9
20260901113627 64 246 0.9 0.9 0.00 0.00 0.00 1 1008.2
20260901112623 64 0.0 0.9 0.00 0.00 0.00 1 1008.0
20260901111621 64 17 0.0 1.7 0.00 0.00 0.00 1 1007.7
20260901110656 64 26 1.7 1.7 0.00 0.00 0.00 1 1007.9
20260901105626 64 326 0.9 0.9 0.00 0.00 0.00 1 1007.8
20260901104622 65 0.0 0.9 0.00 0.00 0.00 1 1008.0
20260901103639 64 324 0.0 0.9 0.00 0.00 0.00 1 1008.1
20260901102635 64 330 0.9 1.7 0.00 0.00 0.00 1 1008.1
20260901101632 65 317 2.6 2.6 0.00 0.00 0.00 1 1008.2
20260901100629 65 298 2.6 3.5 0.00 0.00 0.00 1 1008.2
20260901095645 65 275 0.9 1.7 0.00 0.00 0.00 1 1008.3
20260901094621 65 301 3.5 3.5 0.00 0.00 0.00 1 1008.3
20260901093617 65 273 1.7 1.7 0.00 0.00 0.00 1
20260901092634 65 309 1.7 2.6 0.00 0.00 0.00 1 1008.2
20260901091631 66 306 1.7 2.6 0.00 0.00 0.00 1 1008.1
20260901090627 64 215 0.9 1.7 0.00 0.00 0.00 1 1008.2
20260901085623 63 303 2.6 3.5 0.00 0.00 0.00 1 1008.0
20260901084620 63 306 2.6 2.6 0.00 0.00 0.00 1 1008.3
20260901083618 64 337 1.7 1.7 0.00 0.00 0.00 1 1008.2
20260901082653 64 298 2.6 2.6 0.00 0.00 0.00 1 1008.3
20260901081629 64 299 2.6 2.6 0.00 0.00 0.00 1 1008.4
20260901080705 63 274 1.7 3.5 0.00 0.00 0.00 1 1008.5
20260901075702 64 316 2.6 2.6 0.00 0.00 0.00 1 1008.5
20260901074639 64 292 1.7 1.7 0.00 0.00 0.00 1 1008.5
20260901073635 65 284 0.9 1.7 0.00 0.00 0.00 1 1008.5
20260901072631 65 304 2.6 3.5 0.00 0.00 0.00 1 1008.4
20260901071627 66 302 2.6 3.5 0.00 0.00 0.00 1 1008.5
20260901070623 65 287 1.7 2.6 0.00 0.00 0.00 1 1008.5
20260901065620 65 309 1.7 3.5 0.00 0.00 0.00 1 1008.5
20260901064617 66 317 2.6 3.5 0.00 0.00 0.00 1 1008.4
20260901063634 67 322 2.6 3.5 0.00 0.00 0.00 1 1008.7
20260901062630 68 342 2.6 3.5 0.00 0.00 0.00 1 1008.7
20260901061627 69 316 2.6 3.5 0.00 0.00 0.00 1 1008.7
20260901060625 70 318 2.6 3.5 0.00 0.00 0.00 1 1008.7
20260901055620 71 339 3.5 4.3 0.00 0.00 0.00 1 1008.7
20260901054637 72 346 2.6 3.5 0.00 0.00 0.00 1 1008.8
20260901053714 72 355 2.6 3.5 0.00 0.00 0.00 1 1008.9
20260901052630 72 350 3.5 3.5 0.00 0.00 0.00 1 1009.0
20260901051627 73 356 1.7 2.6 0.00 0.00 0.00 1 1009.0
20260901050624 72 345 1.7 1.7 0.00 0.00 0.00 1 1009.1
20260901045620 73 337 1.7 2.6 0.00 0.00 0.00 1 1009.1
20260901044616 73 332 1.7 2.6 0.00 0.00 0.00 1 1009.2
20260901043633 73 339 3.5 4.3 0.00 0.00 0.00 1 1009.1
20260901042630 73 321 2.6 3.5 0.00 0.00 0.00 1 1009.1
20260901041708 74 324 2.6 3.5 0.00 0.00 0.00 1 1009.0
20260901040624 74 328 2.6 4.3 0.00 0.00 0.00 1 1009.0
20260901035620 73 332 4.3 6.1 0.00 0.00 0.00 1 1009.0
20260901034617 73 320 5.2 6.1 0.00 0.00 0.00 1 1009.1
20260901033633 74 326 4.3 6.1 0.00 0.00 0.00 1 1009.1
20260901032630 74 320 3.5 4.3 0.00 0.00 0.00 1 1008.8
20260901031627 74 334 5.2 6.1 0.00 0.00 0.00 1 1008.9
20260901030624 75 336 4.3 5.2 0.00 0.00 0.00 1 1009.0
20260901025620 76 335 4.3 5.2 0.00 0.00 0.00 1 1008.9
20260901024636 76 337 4.3 5.2 0.00 0.00 0.00 1 1008.9
20260901023633 76 327 2.6 3.5 0.00 0.00 0.00 1 1008.9
20260901022630 78 318 2.6 2.6 0.00 0.00 0.00 1 1009.1
20260901021627 80 344 2.6 3.5 0.00 0.00 0.00 1 1008.8
20260901020623 82 6 3.5 5.2 0.00 0.00 0.00 1 1008.9
20260901015620 83 359 4.3 5.2 0.00 0.00 0.00 1 1009.0
20260901014638 83 1 3.5 5.2 0.00 0.00 0.00 1 1009.1
20260901013634 84 4 4.3 5.2 0.00 0.00 0.00 1 1009.2
20260901012630 84 27 4.3 6.1 0.00 0.00 0.00 1 1009.3
20260901011627 85 10 5.2 7.0 0.00 0.00 0.00 1 1009.3
20260901010624 85 11 4.3 7.0 0.00 0.00 0.00 1 1009.6
20260901005620 85 15 6.1 8.7 0.00 0.00 0.00 1 1009.6
20260901004637 85 17 3.5 4.3 0.00 0.00 0.00 1 1009.7
20260901003634 85 19 6.1 9.6 0.00 0.00 0.00 1 1009.8
20260901002630 85 11 6.1 7.8 0.00 0.00 0.00 1 1009.9
20260901001627 84 9 4.3 6.1 0.00 0.00 0.00 1 1010.1
20260901000625 85 34 4.3 7.0 0.00 0.00 0.00 1 1010.3
20260831235619 85 42 4.3 6.1 0.00 0.00 0.00 1 1010.4
20260831234621 84 24 6.1 8.7 0.00 0.00 0.00 1 1010.6
20260831233633 84 37 3.5 5.2 0.00 0.00 0.00 1 1010.9
20260831232649 83 24 4.3 5.2 0.00 0.00 0.00 1 1011.0
20260831231625 83 22 4.3 6.1 0.00 0.00 0.00 1 1011.2
20260831230622 83 37 5.2 7.0 0.00 0.00 0.00 1 1011.2
20260831225619 82 26 6.1 8.7 0.00 0.00 0.00 1 1011.4
20260831224635 81 60 5.2 7.0 0.00 0.00 0.00 1 1011.6
20260831223632 82 51 5.2 7.0 0.00 0.00 0.00 1 1011.8
20260831222628 81 19 5.2 6.1 0.00 0.00 0.00 1 1011.8
20260831221625 81 52 5.2 7.0 0.00 0.00 0.00 1 1011.9
20260831220621 80 44 4.3 7.0 0.00 0.00 0.00 1 1012.2
20260831215621 81 52 4.3 6.1 0.00 0.00 0.00 1 1012.3
20260831214634 81 35 6.1 7.8 0.00 0.00 0.00 1 1012.4
20260831213630 79 52 3.5 5.2 0.00 0.00 0.00 1 1012.8
20260831212627 79 40 4.3 7.8 0.00 0.00 0.00 1 1012.8
20260831211704 79 55 5.2 7.0 0.00 0.00 0.00 1 1013.1
20260831210620 78 50 4.3 5.2 0.00 0.00 0.00 1 1013.3
20260831205636 78 36 5.2 7.8 0.00 0.00 0.00 1 1013.3
20260831204633 77 39 3.5 4.3 0.00 0.00 0.00 1 1013.6
20260831203630 77 41 3.5 7.0 0.00 0.00 0.00 1 1013.8
20260831202626 76 39 3.5 4.3 0.00 0.00 0.00 1 1013.9
20260831201623 76 29 2.6 3.5 0.00 0.00 0.00 1 1014.1